Aérodrome :
LOGIN :

S'inscrire | Disclaimer

   EN    FR    IT 

 










Légende :    VFR   VFR Marginal   IFR   IFR Intensif   IFR Très Intensif
Visi : 
Plafond : 
>= 8 km
>= 3000ft
5 à 8 km
1000 à 3000 ft
1500m à 5 km
500 à 1000 ft
800 à 1500m
200 à 500 ft
< 800m
< 200 ft
Symboles :   Orages  Brouillard  Fortes neiges  Fortes précipitations  Vent > 20 kt
SIGMETs :   Divers  Orages  Givrage  Turbulence  Onde Orograph.  Cendres Volcan.






- Altitude de l'aérodrome : 1966 ft
- Code IATA : SGE


EDGS - Siegerland

DERNIER METAR :
  • 231450Z 09003KT 050V150 9999 OVC015 02/M01 Q1033

METARs EXPIRÉS :
  • 231420Z VRB01KT 9999 OVC016 02/M01 Q1033
  • 231350Z 36003KT 330V030 9999 SCT015 OVC018 02/M00 Q1033
  • 231320Z VRB01KT 9999 SCT014 OVC018 03/M01 Q1033
  • 231250Z VRB02KT 9999 SCT014 OVC018 03/M01 Q1033
  • 231220Z 00000KT 9999 FEW010 SCT014 OVC018 04/00 Q1033

TAF TAF EDGS
Valide du 23 à 15h jusqu'au 24 à 00h UTC


231400Z 2315/2324 VRB03KT 8000 SCT015 BKN020
TEMPO 2315/2318 BKN014
BECMG 2318/2320 09005KT 3000 BR BKN006
TEMPO 2320/2324 VRB03KT 2000 BR BKN003



MET'MAP, la Météo Aéronautique d'un coup d'oeil ! - Copyright ORBIFLY Décembre 2007 - Disclaimer

ORBIFLY MET'MAP TEAM :

Programmation & Développement : Alexandra Zaïnal
Sur une idée originale de : Baudouin d'Aumeries
Assistance à la programmation : Marc-Olivier Méhu
Soutien technique & logistique : Manuel Goepfert

Contact : metmap@orbifly.com




SOURCES & CREDITS :

   NOAA